Regional Weather Roundup
Issued by NWS Cleveland, OH

Home | Current Version | Previous Version | Graphics & Text | Print | Product List | Glossary On
Versions: 1 2 3 4 5 6 7 8 9 10 11 12 13 14 15 16 17 18 19 20 21 22 23 24 25 26 27 28 29 30 31 32 33 34 35 36 37 38 39 40 41 42 43 44 45 46 47 48 49 50
000
ASUS41 KCLE 020502
RWRCLE
OHIO REGIONAL WEATHER ROUNDUP
NATIONAL WEATHER SERVICE CLEVELAND, OH
100 AM EDT TUE SEP 02 2014

NOTE: "FAIR" INDICATES FEW OR NO CLOUDS BELOW 12,000 FEET WITH NO
SIGNIFICANT WEATHER AND/OR OBSTRUCTIONS TO VISIBILITY.

OHZ001>008-015>018-024>027-034-035-043-044-020600-
   NORTHWEST OHIO

CITY           SKY/WX    TMP DP  RH WIND       PRES   REMARKS
DEFIANCE       CLEAR     71  66  84 SW5       29.89S
FINDLAY        PTCLDY    75  70  84 SW10      29.90S
TOLEDO EXPRESS CLEAR     74  67  78 SW9       29.87S
TOLEDO EXEC    CLEAR     74  69  85 SW8       29.88S
LIMA           CLEAR     74  70  87 SW9       29.93R
$$

OHZ009>014-019>023-028>033-038-089-020600-
   NORTHEAST OHIO

CITY           SKY/WX    TMP DP  RH WIND       PRES   REMARKS
CLE-HOPKINS    MOCLDY    75  69  81 S10       29.92R
CLE-LAKEFRONT  PTCLDY    79  69  71 SW16G25   29.88R
CUY CO. ARPT   NOT AVBL
LORAIN-ELYRIA  MOCLDY    78  70  76 SW8       29.91R
ASHTABULA      MOCLDY    74  70  87 SW7       29.90F
AKRON-CANTON   PTCLDY    74  69  85 SW10      29.94S
WOOSTER        PTCLDY    73  69  87 SW7       29.95R
MANSFIELD      PTCLDY    75  71  87 SW13G22   29.95R
YOUNGSTOWN     PTCLDY    74  69  85 SW10G17   29.93S
$$

OHZ042-051>053-060>062-070>072-077>081-020600-
  SOUTHWEST OHIO

CITY           SKY/WX    TMP DP  RH WIND       PRES   REMARKS
CINC-COVINGTON CLEAR     75  70  84 SW6       29.97S
CINC-LUNKEN    CLEAR     76  71  85 SW9       29.96S
HAMILTON       CLEAR     74  72  93 SW3       29.97R
DAYTON         PTCLDY    75  71  87 SW10      29.97R
WRIGHT-PAT AFB CLEAR     75  72  91 SW10      29.96R
DAYTON GENERAL CLEAR     75  71  87 SW8       29.96S
WILMINGTON     PTCLDY    72  69  90 SW8       29.97S
$$

OHZ036-037-039>041-045>050-054>059-063>069-073>076-082>088-020600-
  CENTRAL AND SOUTHEAST OHIO

CITY           SKY/WX    TMP DP  RH WIND       PRES   REMARKS
COLUMBUS       PTCLDY    77  70  79 S8        29.94F
OSU AIRPORT    PTCLDY    74  70  87 SW7       29.94F
BOLTON FIELD   CLEAR     73  71  95 SW8       29.96S
RICKENBACK AFB PTCLDY    73  67  80 S8        29.95S
NEWARK         PTCLDY    73  70  90 SW5       29.95S
MARION         PTCLDY    73  70  90 SW8       29.94R
LANCASTER      CLEAR     74  70  87 SW6       29.97R
ZANESVILLE     PTCLDY    73  69  87 SW7       29.97R
NEW PHILLY     CLOUDY    74  70  87 CALM      29.96S
$$


USA.gov is the U.S. government's official web portal to all federal, state and local government web resources and services.